Showing default

NANOACE, 42844

Orbit data source: Space-Track

NANOACE, 42844 is a payload satellite owned by Tyvak NSS (US) in SSO that was launched on Fri, 14 Jul 2017 UTC via a SOYUZ-2-1A launch vehicle from the Tyuratam Missile And Space Complex (TTMTR). Payload-class satellites include a variety of spacecraft equipped with specific instruments for various scientific and technological missions. These include communications satellites like Starlink; space stations such as the ISS; scientific satellites like the Hubble; Earth observation satellites from companies like Planet Labs, Umbra, and HawkEye 360; GPS; miniature CubeSats for education and research; and military/defense satellites.

Loading next visibility...
Identifier
42844, 2017-042V
Orbit
SSO
Country
Flag of USUS
Related business
Manufacturer
Tyvak NSS
Mission
Operational Commercial Technology
Bus & Motor
CUBESAT 3U, Unknown motor
Mass
5.2 kg wet, 5.2 kg dry
Launch date (UTC)
2017-07-14 (9 years ago)
Launch vehicle
SOYUZ-2-1A
Launch site
Tyuratam Missile And Space Complex (TTMTR)
Object type
Payload
Rocket body
Debris
Shape & HBR
Box + 2 Pan, 0.3 m
Radar Cross Section
0.048 m², Medium (>0.1 m² and < 1m²)

Expand to show TLE details & history
Last TLE update: 2 days ago

TLE from 2 days ago
0 NANOACE
1 42844U 17042V   26171.44461913  .00010334  00000-0  42170-3 0  9993
2 42844  97.3746 345.6727 0004205  22.5561 337.5861 15.24598893488575
Epoch: 2026-06-20T10:40Z
TLE epoch observation values (Epoch: 2026-06-20T10:40:15.092Z)
Latitude
-0.00002°
Longitude
-83.04933°
Altitude
492.417 km
Speed
7.62 km/s
True Right ascension
23h 02m 41s
True Declination
0° 00' 00"
Sunlit
Object was in daylight at epoch
Visualization orbit readout
Latitude
Unknown
Longitude
Unknown
Altitude
Unknown
Speed
Unknown
Apparent Right ascension
Unknown
Apparent Declination
Unknown
Sunlit
N/A
Visualization observer readout
Local Sidereal Time
07:08:04
Azimuth
Unknown
Elevation
Unknown
Doppler factor
Unknown
Orbital elements
Apogee altitude
491.836 km
Perigee altitude
486.061 km
Semi-major axis
6,867.086 km
Eccentricity
0.00042
Inclination
97.3746°
RAAN
345.6727°
Arg. of periapsis
22.5561°
True anomaly
337.56772°
Mean anomaly
337.5861°
Eccentric anomaly
337.57691°
Mean motion
3.81403 °/min
Orbital period
94.39 mins
BSTAR
0.0004217
Loading maneuver chart data...
Computing Atmospheric mass density...

Documentation

Showing up to 5 results
|